カタログに戻る

FENGYUN 1C DEB

運用中SSO
NORAD 35173·DEBRIS·🇨🇳 China

打ち上げ May 10, 1999 から Taiyuan Satellite Launch Center

Loading…

次のパス (今後24時間)

TLE

最新Source: Space-Track

元期: Sep 11, 2026, 09:39 UTC

1 35173U 99025DND 26254.40258687  .00000852  00000-0  85430-3 0  9991
2 35173  99.7719 321.4830 0486135 269.0630  85.4790 13.38185926694757

AllMySatでFENGYUN 1C DEBをリアルタイム追跡

Download on the App Store